User: anonymous   Login
Location: Newark
(13.8117°N, 3.6025°W)
Time: 22:11:30
(UTC+00:00)
Language:

A-11 Canister half - Orbit

View from above orbital plane
View from above orbital plane
View from above satellite
View from above satellite

Ground track
Ground track

The orbit data is extracted from the following two-line orbital elements,

1    53U 60009E   19236.73710384 -.00000091 +00000-0 -71879-4 0  9995
2    53 047.2770 097.0816 0097795 282.2090 076.7760 12.17228952632304
Epoch (UTC): 24 August 2019 17:41:25
Eccentricity: 0.0097795
inclination: 47.2770°
perigee height: 1526 km
apogee height: 1682 km
right ascension of ascending node: 97.0816°
argument of perigee: 282.2090°
revolutions per day: 12.17228952
mean anomaly at epoch: 76.7760°
orbit number at epoch: 63230

The dashed part of the orbit path shows where the satellite is in the earth's shadow,  

DLR